Date,TemperatureHighF,TemperatureAvgF,TemperatureLowF,DewpointHighF,DewpointAvgF,DewpointLowF,HumidityHigh,HumidityAvg,HumidityLow,PressureMaxIn,PressureMinIn,WindSpeedMaxMPH,WindSpeedAvgMPH,GustSpeedMaxMPH,PrecipitationSumIn
2013-1-1,35.9,32.7,23.2,29.0,23.2,12.0,78,68,56,29.49,29.33,4,1,10,0.00
2013-1-2,28.5,23.9,17.0,18.0,14.3,10.0,77,67,61,29.66,29.48,4,0,11,0.00
2013-1-3,28.1,22.6,11.5,19.0,14.0,5.0,75,70,57,29.68,29.55,2,0,6,0.00
2013-1-4,35.5,30.8,27.1,26.0,22.2,19.0,80,71,61,29.55,29.43,4,0,9,0.00
2013-1-5,38.9,33.8,30.6,25.0,23.0,19.0,73,65,56,29.77,29.48,5,1,12,0.00
2013-1-6,41.6,35.4,31.3,32.0,27.7,24.0,88,74,62,29.71,29.47,4,0,5,0.00
2013-1-7,41.3,36.2,30.8,30.0,25.8,21.0,81,67,49,29.89,29.55,3,0,9,0.00
2013-1-8,44.4,36.2,28.4,31.0,27.9,24.0,85,72,59,29.91,29.83,2,0,8,0.00
2013-1-9,43.0,38.5,33.4,36.0,31.6,26.0,83,76,69,29.88,29.63,2,0,8,0.00
2013-1-10,44.1,39.9,35.7,33.0,25.7,24.0,71,57,46,30.04,29.70,5,1,11,0.00
2013-1-11,41.8,36.3,32.3,41.0,30.4,24.0,95,80,65,30.03,29.61,3,0,6,0.20
2013-1-12,44.7,42.4,40.0,44.0,41.3,39.0,96,95,95,29.68,29.59,2,0,5,0.22
2013-1-13,45.6,43.1,40.9,45.0,42.1,40.0,97,96,96,29.67,29.52,3,0,5,0.00
2013-1-14,54.1,46.6,34.6,52.0,42.8,31.0,97,87,67,29.80,29.43,5,1,9,0.04
2013-1-15,36.1,34.0,32.0,31.0,28.7,26.0,91,81,70,29.84,29.72,3,0,8,0.11
2013-1-16,33.2,31.7,29.9,32.0,30.1,28.0,95,93,82,29.74,29.34,2,0,6,0.49
2013-1-17,40.3,34.8,29.6,32.0,28.8,22.0,95,79,63,29.59,29.41,4,0,10,0.00
2013-1-18,29.1,24.3,21.1,20.0,11.6,7.0,70,59,46,29.96,29.52,8,1,11,0.00
2013-1-19,44.2,36.5,26.0,30.0,24.3,14.0,74,62,52,29.87,29.42,6,1,9,0.00
2013-1-20,48.7,39.4,27.1,32.0,25.0,11.0,78,58,34,29.50,29.18,6,1,12,0.00
2013-1-21,29.2,26.1,22.3,21.0,14.7,10.0,80,63,52,29.58,29.31,4,0,9,0.00
2013-1-22,24.3,18.0,11.1,17.0,2.6,-7.0,74,52,39,29.65,29.31,10,2,15,0.00
2013-1-23,18.3,12.7,8.9,1.0,-2.0,-6.0,65,53,42,29.71,29.63,4,1,11,0.00
2013-1-24,20.8,13.6,6.6,4.0,0.7,-2.0,75,58,40,29.84,29.61,10,1,16,0.00
2013-1-25,22.4,16.6,11.0,16.0,6.5,0.0,87,66,46,29.88,29.54,4,0,9,0.03
2013-1-26,24.0,17.8,12.4,12.0,9.0,6.0,87,70,51,29.83,29.52,4,1,10,0.03
2013-1-27,30.5,23.2,15.2,13.0,10.6,7.0,79,60,41,29.99,29.83,4,0,9,0.00
2013-1-28,32.6,28.9,24.1,31.0,23.3,12.0,94,81,57,29.97,29.50,3,0,7,0.19
2013-1-29,42.9,36.5,32.7,41.0,34.8,31.0,95,93,88,29.65,29.49,3,0,7,0.04
2013-1-30,52.9,46.3,35.9,52.0,45.2,35.0,97,96,95,29.60,28.90,7,1,9,0.05
2013-1-31,55.2,42.6,27.2,54.0,32.5,12.0,97,70,42,29.24,28.57,17,2,20,0.79
2013-2-1,30.2,25.9,21.6,16.0,10.8,5.0,68,54,38,29.69,29.24,7,1,17,0.00
2013-2-2,27.8,22.7,17.1,19.0,11.6,7.0,89,64,42,29.77,29.56,7,0,9,0.02
2013-2-3,29.0,23.3,17.9,19.0,17.2,16.0,91,79,61,29.55,29.29,3,0,8,0.03
2013-2-4,29.4,24.7,20.1,20.0,12.9,9.0,85,62,44,29.46,29.29,8,1,12,0.00
2013-2-5,27.8,25.7,23.5,25.0,21.4,15.0,91,83,67,29.48,29.40,3,0,5,0.00
2013-2-6,36.3,30.1,25.1,27.0,20.7,7.0,93,70,44,29.84,29.41,7,1,10,0.00
2013-2-7,30.1,25.0,19.7,21.0,10.2,4.0,75,54,39,30.00,29.82,4,0,9,0.00
2013-2-8,31.0,29.4,25.4,29.0,26.4,21.0,93,88,75,29.84,29.12,11,4,18,0.28
2013-2-9,28.5,23.8,16.1,26.0,19.8,10.0,93,84,74,29.80,29.24,8,3,18,0.53
2013-2-10,34.6,23.3,13.0,21.0,10.1,5.0,80,60,31,29.96,29.81,4,0,14,0.00
2013-2-11,41.4,36.0,27.8,40.0,34.1,21.0,96,92,75,29.82,29.18,3,0,5,0.23
2013-2-12,41.0,37.3,34.8,37.0,29.6,24.0,96,75,60,29.46,29.21,6,1,12,0.00
2013-2-13,41.0,35.1,29.2,31.0,24.9,21.0,93,67,53,29.44,29.21,3,0,7,0.04
2013-2-14,41.1,34.6,28.3,32.0,28.4,26.0,94,79,58,29.50,29.22,2,0,5,0.06
2013-2-15,49.7,40.0,31.3,36.0,31.7,28.0,92,74,49,29.51,29.42,4,0,8,0.00
2013-2-16,36.5,32.0,27.5,32.0,24.9,15.0,93,76,59,29.46,29.23,8,1,14,0.02
2013-2-17,29.5,23.3,14.6,15.0,7.0,1.0,60,50,38,29.43,29.12,10,4,20,0.00
2013-2-18,30.6,22.8,14.5,15.0,8.1,4.0,64,54,41,29.71,29.43,7,2,14,0.00
2013-2-19,43.7,35.4,26.7,39.0,28.4,14.0,95,77,56,29.70,29.18,5,1,9,0.20
2013-2-20,35.0,28.7,22.6,27.0,16.7,11.0,74,62,49,29.45,29.19,8,2,14,0.02
2013-2-21,31.2,25.7,22.0,16.0,14.1,12.0,71,62,51,29.78,29.43,8,2,14,0.00
2013-2-22,36.2,29.5,22.0,28.0,21.6,14.0,83,73,56,29.90,29.76,7,1,13,0.00
2013-2-23,38.0,34.6,32.5,37.0,32.7,28.0,95,92,83,29.77,29.32,10,2,14,0.02
2013-2-24,42.4,35.9,31.0,39.0,32.2,25.0,96,87,67,29.45,29.25,6,1,9,0.00
2013-2-25,43.2,36.0,29.3,30.0,26.0,23.0,78,67,54,29.74,29.45,5,0,11,0.00
2013-2-26,38.8,35.2,31.2,32.0,29.4,26.0,92,80,63,29.80,29.45,18,3,21,0.12
2013-2-27,43.7,39.7,33.6,42.0,38.2,32.0,96,94,92,29.44,29.01,23,5,35,0.85
2013-2-28,46.2,40.5,36.9,40.0,35.3,32.0,93,82,65,29.13,29.06,1,0,7,0.01
2013-3-1,43.5,37.3,31.9,34.0,30.3,26.0,92,76,60,29.27,29.10,4,0,9,0.01
2013-3-2,38.0,34.1,29.4,27.0,25.8,24.0,90,72,62,29.27,29.19,3,0,7,0.00
2013-3-3,39.5,31.3,27.2,26.0,22.1,19.0,87,69,52,29.24,29.16,5,1,16,0.00
2013-3-4,39.5,31.5,26.3,24.0,20.3,17.0,76,64,51,29.38,29.23,6,2,14,0.00
2013-3-5,45.6,36.6,28.4,28.0,25.0,21.0,77,64,49,29.53,29.38,13,1,13,0.00
2013-3-6,39.5,37.2,34.8,36.0,30.6,27.0,90,77,67,29.50,29.39,13,5,21,0.02
2013-3-7,37.3,33.6,31.1,33.0,29.4,26.0,94,85,72,29.57,29.43,12,3,18,0.12
2013-3-8,37.4,33.0,29.2,31.0,28.5,25.0,93,84,68,29.69,29.49,11,2,15,0.46
2013-3-9,48.5,39.8,30.9,27.0,23.2,19.0,76,54,33,29.82,29.68,7,2,12,0.00
2013-3-10,46.5,39.1,31.0,35.0,31.6,22.0,90,75,56,29.88,29.80,4,1,8,0.00
2013-3-11,50.6,42.7,35.3,46.0,39.2,33.0,94,87,73,29.82,29.61,7,1,9,0.00
2013-3-12,53.2,49.0,41.3,52.0,47.0,38.0,95,92,85,29.60,29.20,9,2,16,1.22
2013-3-13,49.2,42.5,36.0,39.0,31.6,26.0,90,67,44,29.38,29.29,6,1,9,0.00
2013-3-14,36.3,31.9,26.8,28.0,16.0,8.0,78,54,33,29.42,29.34,9,2,14,0.00
2013-3-15,40.5,34.7,26.9,30.0,22.2,12.0,71,61,51,29.44,29.22,5,1,10,0.00
2013-3-16,36.2,32.5,30.1,29.0,23.3,19.0,90,70,52,29.38,29.28,3,0,7,0.02
2013-3-17,37.0,31.8,26.9,27.0,20.6,13.0,91,65,39,29.71,29.42,4,1,7,0.00
2013-3-18,32.5,27.9,23.0,25.0,12.5,7.0,88,53,42,29.91,29.68,7,2,14,0.01
2013-3-19,36.6,33.4,31.6,33.0,31.4,27.0,95,92,79,29.50,29.22,13,1,17,0.44
2013-3-20,41.1,34.4,26.7,26.0,21.6,20.0,79,61,45,29.36,29.29,7,0,9,0.00
2013-3-21,36.2,32.1,29.3,27.0,21.2,15.0,85,65,43,29.34,29.14,5,0,7,0.00
2013-3-22,39.1,32.7,26.7,24.0,19.1,13.0,68,58,49,29.37,29.21,7,1,9,0.00
2013-3-23,43.6,36.8,30.7,25.0,21.9,19.0,69,56,43,29.39,29.30,8,2,15,0.00
2013-3-24,44.0,36.5,28.6,26.0,23.2,20.0,74,60,45,29.44,29.23,4,0,8,0.00
2013-3-25,41.1,36.9,33.5,34.0,27.9,24.0,89,71,53,29.22,28.97,9,2,14,0.00
2013-3-26,50.4,41.8,35.3,34.0,28.8,26.0,74,61,43,29.30,29.12,4,1,11,0.00
2013-3-27,52.3,41.6,32.3,31.0,26.5,23.0,69,56,37,29.46,29.36,4,1,9,0.00
2013-3-28,47.5,42.2,34.6,34.0,30.8,28.0,78,65,54,29.60,29.45,7,1,9,0.00
2013-3-29,54.4,44.1,37.1,32.0,29.4,27.0,70,57,38,29.63,29.55,4,1,9,0.00
2013-3-30,56.7,45.9,35.3,34.0,26.8,20.0,79,51,27,29.66,29.57,4,0,9,0.00
2013-3-31,53.9,45.9,39.4,42.0,30.7,19.0,94,58,38,29.64,29.18,6,1,12,0.13
2013-4-1,61.0,45.9,34.3,47.0,37.2,14.0,96,74,39,29.39,29.12,5,1,12,0.13
2013-4-2,41.8,35.7,29.5,19.0,15.0,12.0,64,44,31,29.57,29.40,10,2,15,0.00
2013-4-3,45.1,36.5,29.0,18.0,14.4,11.0,60,42,29,29.78,29.56,8,2,12,0.00
2013-4-4,51.7,38.9,28.7,32.0,21.1,13.0,76,51,28,29.87,29.58,5,1,9,0.00
2013-4-5,60.9,46.9,37.8,31.0,24.2,17.0,72,45,22,29.57,29.22,6,1,16,0.00
2013-4-6,49.0,41.2,32.4,28.0,14.9,3.0,73,38,16,29.81,29.49,8,1,16,0.00
2013-4-7,53.6,44.6,34.4,43.0,35.3,27.0,89,71,49,29.80,29.52,8,1,13,0.00
2013-4-8,70.4,56.0,44.0,45.0,42.1,38.0,91,64,31,29.59,29.49,6,1,8,0.00
2013-4-9,78.2,63.5,48.1,52.0,43.5,38.0,90,54,28,29.52,29.43,8,1,12,0.00
2013-4-10,69.7,60.0,50.8,54.0,49.3,39.0,95,70,43,29.51,29.34,5,1,11,0.34
2013-4-11,62.2,53.4,44.6,56.0,48.1,38.0,96,83,61,29.57,29.32,7,1,12,0.35
2013-4-12,44.7,41.0,38.1,39.0,36.2,30.0,95,84,60,29.57,29.24,23,5,28,0.28
2013-4-13,55.1,46.0,37.0,41.0,36.7,33.0,95,72,50,29.48,29.26,3,0,7,0.06
2013-4-14,54.0,48.0,41.5,39.0,32.0,26.0,78,56,38,29.73,29.47,9,1,12,0.00
2013-4-15,55.4,46.6,39.4,36.0,30.2,25.0,74,54,42,29.89,29.73,6,1,9,0.00
2013-4-16,61.8,51.2,41.7,52.0,45.0,35.0,90,80,65,29.89,29.64,6,1,11,0.00
2013-4-17,65.3,58.4,51.0,54.0,41.1,33.0,90,57,33,29.80,29.63,6,1,10,0.00
2013-4-18,58.6,51.8,43.8,49.0,40.9,32.0,91,68,43,29.86,29.63,10,2,15,0.00
2013-4-19,70.2,60.2,51.9,63.0,57.0,49.0,96,89,73,29.63,29.19,7,1,11,0.04
2013-4-20,60.0,51.1,42.2,59.0,37.5,23.0,95,64,35,29.80,29.19,5,1,12,0.19
2013-4-21,50.9,43.1,33.7,31.0,23.1,20.0,66,47,31,30.12,29.81,7,1,11,0.00
2013-4-22,52.8,44.0,35.9,36.0,29.7,23.0,84,60,37,30.17,30.01,13,3,23,0.00
2013-4-23,50.7,42.4,36.5,41.0,36.2,30.0,91,79,70,30.00,29.62,11,2,11,0.00
2013-4-24,68.6,52.2,40.1,49.0,44.0,38.0,92,76,48,29.62,29.35,5,1,8,0.00
2013-4-25,61.9,53.8,44.9,51.0,32.5,20.0,94,49,21,29.77,29.38,5,1,10,0.00
2013-4-26,63.9,54.5,43.3,37.0,32.0,26.0,71,45,26,29.92,29.77,4,0,8,0.00
2013-4-27,66.1,55.3,43.7,35.0,28.5,18.0,58,39,16,29.93,29.79,4,1,9,0.00
2013-4-28,67.4,54.8,43.7,47.0,37.6,29.0,86,55,32,29.83,29.73,6,1,9,0.00
2013-4-29,55.3,52.4,49.7,49.0,44.4,36.0,88,75,57,29.76,29.71,4,0,9,0.01
2013-4-30,64.8,55.9,48.2,46.0,36.6,26.0,81,53,27,29.85,29.73,7,1,9,0.00
2013-5-1,64.9,55.8,45.5,45.0,35.6,25.0,80,49,25,30.00,29.85,7,1,16,0.00
2013-5-2,71.1,59.4,47.4,45.0,41.4,35.0,82,55,30,29.98,29.83,3,0,7,0.00
2013-5-3,62.4,55.0,46.6,44.0,39.9,33.0,87,59,37,29.97,29.87,8,1,12,0.00
2013-5-4,66.7,54.6,44.3,46.0,43.2,40.0,91,68,42,29.89,29.75,5,1,9,0.00
2013-5-5,59.8,50.8,41.8,44.0,40.5,36.0,90,70,44,29.81,29.73,4,1,9,0.00
2013-5-6,65.8,54.1,42.5,52.0,46.7,40.0,93,77,57,29.78,29.68,5,0,6,0.00
2013-5-7,70.8,60.8,49.1,57.0,52.4,46.0,90,75,55,29.69,29.62,4,1,11,0.00
2013-5-8,61.7,58.6,53.2,61.0,57.0,52.0,96,94,88,29.64,29.51,5,1,11,0.50
2013-5-9,62.7,56.8,52.7,59.0,55.5,52.0,97,95,85,29.54,29.41,2,0,3,0.26
2013-5-10,76.9,65.4,54.5,62.0,55.9,53.0,95,74,46,29.52,29.42,3,0,5,0.00
2013-5-11,64.0,60.9,58.7,63.0,59.5,55.0,96,95,87,29.42,29.22,2,0,6,0.38
2013-5-12,68.0,58.9,47.5,59.0,47.0,31.0,97,69,35,29.43,29.18,2,0,7,0.01
2013-5-13,54.6,48.0,39.5,36.0,32.2,27.0,79,56,38,29.60,29.43,5,0,6,0.00
2013-5-14,58.8,49.6,38.9,39.0,31.6,26.0,78,53,29,29.63,29.53,4,0,8,0.00
2013-5-15,62.0,52.8,44.2,54.0,46.2,38.0,90,78,59,29.58,29.21,3,0,7,0.01
2013-5-16,77.7,66.8,57.5,56.0,51.2,43.0,90,60,32,29.35,29.24,3,0,5,0.00
2013-5-17,68.2,61.7,54.4,45.0,41.9,38.0,63,49,38,29.72,29.36,3,0,6,0.00
2013-5-18,69.8,58.2,50.6,55.0,48.5,37.0,95,72,46,29.82,29.72,2,0,4,0.03
2013-5-19,56.6,55.1,53.0,56.0,53.8,51.0,96,95,93,29.85,29.70,2,0,7,0.11
2013-5-20,74.8,64.5,55.6,68.0,61.7,55.0,97,91,77,29.69,29.49,1,0,4,0.02
2013-5-21,84.0,72.9,62.9,72.0,66.8,62.0,96,82,61,29.50,29.37,2,0,4,0.00
2013-5-22,74.6,65.5,56.3,68.0,62.6,55.0,96,90,78,29.46,29.38,3,0,9,0.00
2013-5-23,75.1,66.0,63.2,72.0,64.7,62.0,97,95,86,29.42,29.30,2,0,6,2.09
2013-5-24,63.0,55.1,44.5,62.0,54.1,43.0,97,96,92,29.44,29.20,5,0,10,0.64
2013-5-25,49.3,45.5,42.4,48.0,43.6,41.0,96,93,85,29.48,29.38,5,1,12,0.46
2013-5-26,62.3,53.7,43.3,48.0,42.0,37.0,89,67,47,29.70,29.43,4,1,10,0.03
2013-5-27,71.4,59.9,46.6,47.0,42.4,38.0,77,55,32,29.75,29.64,3,0,8,0.00
2013-5-28,66.9,58.1,53.8,56.0,49.5,40.0,96,75,42,29.74,29.65,1,0,4,0.28
2013-5-29,77.2,65.7,56.2,70.0,62.5,55.0,97,90,76,29.66,29.53,1,0,3,0.00
2013-5-30,88.1,75.1,66.1,72.0,63.4,-99.9,93,72,51,30.17,29.59,2,-21,5,0.00
2013-5-31,90.4,77.9,69.5,72.0,66.5,64.0,83,69,43,30.20,30.07,0,0,2,0.00
2013-6-1,87.6,76.7,67.1,72.0,67.5,63.0,91,74,56,30.09,29.98,2,0,5,0.00
2013-6-2,86.0,74.7,64.8,73.0,68.3,63.0,95,82,61,29.99,29.84,2,0,7,0.06
2013-6-3,74.5,68.6,63.3,69.0,64.7,53.0,96,87,69,29.96,29.89,1,0,5,1.31
2013-6-4,70.6,63.2,52.6,55.0,47.4,40.0,79,58,40,30.20,29.96,2,0,6,0.00
2013-6-5,70.8,62.0,53.7,53.0,46.6,39.0,79,58,44,30.30,30.20,3,0,7,0.00
2013-6-6,69.6,60.2,53.3,58.0,54.4,49.0,95,82,53,30.24,30.12,4,0,10,0.15
2013-6-7,59.5,58.1,56.4,58.0,57.0,55.0,96,96,95,30.12,29.76,7,2,13,2.52
2013-6-8,74.3,64.6,54.5,67.0,60.6,53.0,97,87,74,30.14,29.69,7,0,8,0.61
2013-6-9,77.5,68.8,59.5,63.0,59.7,57.0,93,74,55,30.26,30.14,2,0,4,0.00
2013-6-10,67.8,63.1,59.0,65.0,60.7,58.0,96,92,83,30.25,29.95,6,1,14,0.93
2013-6-11,77.7,67.0,59.3,71.0,64.0,58.0,97,90,74,29.95,29.69,2,0,7,0.28
2013-6-12,73.1,66.6,60.2,59.0,56.0,53.0,86,69,54,29.94,29.77,5,0,9,0.00
2013-6-13,63.6,58.6,53.2,58.0,55.6,52.0,95,90,70,29.92,29.60,11,1,17,0.98
2013-6-14,69.1,58.4,50.9,60.0,54.4,50.0,96,87,70,29.97,29.64,5,0,12,0.44
2013-6-15,77.0,67.5,58.0,62.0,56.2,53.0,89,69,47,30.09,29.97,2,0,7,0.00
2013-6-16,77.0,68.6,60.1,66.0,59.0,51.0,88,72,52,30.07,29.84,3,0,4,0.00
2013-6-17,82.5,71.1,63.5,72.0,65.1,60.0,95,82,60,29.99,29.91,5,0,6,0.11
2013-6-18,80.3,68.5,62.0,71.0,64.3,59.0,96,87,63,29.99,29.91,6,0,9,0.23
2013-6-19,73.9,64.9,56.4,60.0,54.4,46.0,95,72,38,30.26,29.97,3,0,9,0.00
2013-6-20,78.6,67.1,57.5,62.0,56.6,52.0,90,70,42,30.35,30.26,1,0,7,0.00
2013-6-21,80.9,68.3,57.1,65.0,58.0,51.0,88,71,52,30.38,30.32,1,0,6,0.00
2013-6-22,82.0,70.1,59.5,66.0,59.5,54.0,84,70,52,30.35,30.22,2,0,5,0.00
2013-6-23,86.8,74.0,62.3,73.0,66.4,57.0,92,78,57,30.27,30.15,2,0,6,0.00
2013-6-24,90.3,77.7,67.1,76.0,70.2,65.0,95,79,48,30.15,30.01,5,0,10,0.17
2013-6-25,87.4,76.9,66.5,77.0,70.0,65.0,94,80,61,30.08,29.88,2,0,5,0.00
2013-6-26,80.7,75.6,71.4,72.0,69.6,67.0,91,82,71,29.92,29.84,1,0,5,0.00
2013-6-27,82.3,73.8,68.5,73.0,69.6,67.0,95,87,70,29.90,29.64,5,0,11,1.19
2013-6-28,82.6,74.8,69.6,75.0,70.6,65.0,96,87,70,29.64,29.55,1,0,7,0.06
2013-6-29,81.7,73.3,67.2,72.0,68.0,65.0,94,84,65,29.79,29.57,3,0,6,0.00
2013-6-30,80.5,72.7,67.5,76.0,70.4,66.0,96,92,80,30.00,29.79,3,0,8,0.01
2013-7-1,73.7,71.6,70.0,72.0,70.5,69.0,96,96,94,30.14,29.99,1,0,5,1.85
2013-7-2,80.2,73.8,70.4,76.0,72.0,70.0,97,94,84,30.26,30.14,2,0,6,0.02
2013-7-3,82.0,74.3,69.5,76.0,71.8,68.0,96,92,80,30.33,30.25,2,0,4,0.03
2013-7-4,87.2,78.4,72.3,78.0,73.7,71.0,97,86,69,30.33,30.23,1,0,7,0.00
2013-7-5,88.4,79.8,71.7,78.0,73.3,70.0,94,81,61,30.29,30.16,2,0,5,0.00
2013-7-6,89.5,79.7,73.1,78.0,73.8,71.0,93,83,64,30.21,30.10,1,0,5,0.00
2013-7-7,90.7,81.9,74.2,79.0,74.9,70.0,93,80,62,30.14,29.98,1,0,3,0.00
2013-7-8,87.0,78.3,70.1,74.0,70.2,67.0,91,77,59,30.11,30.04,2,0,5,0.18
2013-7-9,85.4,76.8,69.4,75.0,71.0,67.0,94,83,63,30.15,30.07,2,0,5,0.03
2013-7-10,83.0,76.3,70.9,78.0,72.8,69.0,95,89,77,30.09,29.88,3,0,4,0.13
2013-7-11,80.5,75.3,70.6,74.0,71.1,64.0,95,87,74,30.01,29.88,2,0,7,0.02
2013-7-12,75.4,70.3,64.3,70.0,65.5,62.0,95,85,75,30.20,30.01,7,1,13,0.12
2013-7-13,77.7,70.5,63.7,75.0,68.8,62.0,96,94,87,30.38,30.20,6,1,12,0.07
2013-7-14,87.3,78.6,72.2,78.0,73.9,71.0,97,86,67,30.42,30.31,2,0,6,0.00
2013-7-15,90.7,81.6,74.3,77.0,73.6,70.0,90,77,61,30.32,30.22,2,0,7,0.00
2013-7-16,90.0,82.0,73.3,75.0,69.0,66.0,83,66,48,30.28,30.21,4,0,10,0.00
2013-7-17,92.4,82.7,75.5,77.0,71.5,67.0,82,70,49,30.27,30.14,1,0,6,0.00
2013-7-18,94.1,84.3,75.5,79.0,73.7,70.0,86,71,50,30.14,30.03,1,0,3,0.00
2013-7-19,95.0,85.2,75.8,79.0,75.3,72.0,89,73,55,30.04,29.86,3,0,7,0.00
2013-7-20,91.4,82.5,76.0,77.0,73.5,70.0,86,75,56,29.92,29.79,2,0,5,0.00
2013-7-21,84.8,76.6,70.2,71.0,65.6,62.0,86,70,51,30.05,29.91,6,0,11,0.00
2013-7-22,81.7,73.6,68.2,75.0,70.7,66.0,96,90,76,30.04,29.90,3,0,7,0.14
2013-7-23,84.2,75.1,71.0,77.0,72.5,70.0,96,92,73,29.89,29.64,4,0,6,0.85
2013-7-24,81.1,73.3,64.0,72.0,67.5,54.0,96,83,68,30.01,29.69,5,0,13,0.00
2013-7-25,63.8,61.9,59.1,59.0,55.5,51.0,85,80,70,30.15,30.01,6,1,15,0.00
2013-7-26,77.6,68.4,61.3,65.0,61.6,58.0,91,80,60,30.13,30.09,3,0,11,0.01
2013-7-27,81.9,71.5,62.6,69.0,64.4,61.0,95,79,55,30.15,30.05,2,0,8,0.00
2013-7-28,74.7,69.6,64.3,69.0,66.4,62.0,96,90,75,30.08,30.03,2,0,8,0.18
2013-7-29,83.0,72.9,66.6,72.0,66.1,59.0,97,80,54,30.18,30.05,2,0,9,0.01
2013-7-30,78.4,70.0,62.8,64.0,60.1,56.0,82,72,56,30.24,30.18,2,0,6,0.00
2013-7-31,80.7,70.8,61.2,64.0,60.5,57.0,88,71,47,30.24,30.13,1,0,5,0.00
2013-8-1,73.3,66.6,64.5,68.0,64.2,61.0,96,92,78,30.14,29.92,4,0,5,0.77
2013-8-2,80.9,71.6,64.4,70.0,65.4,62.0,97,82,59,29.99,29.88,2,0,7,0.01
2013-8-3,75.0,66.7,63.4,69.0,64.1,59.0,96,91,78,29.99,29.93,0,0,5,0.12
2013-8-4,78.0,67.8,60.4,66.0,60.6,55.0,95,79,54,30.05,29.94,4,0,9,0.43
2013-8-5,73.9,64.6,58.0,57.0,53.6,49.0,85,69,45,30.14,30.05,3,0,14,0.00
2013-8-6,78.3,67.8,58.9,63.0,57.4,53.0,86,71,47,30.22,30.13,7,0,8,0.00
2013-8-7,75.4,68.5,62.0,67.0,63.0,59.0,90,83,69,30.24,30.16,4,0,10,0.00
2013-8-8,77.4,71.2,67.8,74.0,69.4,66.0,96,94,85,30.17,30.10,2,0,7,0.17
2013-8-9,82.3,73.4,70.0,78.0,71.9,69.0,97,95,85,30.11,29.88,2,0,11,0.33
2013-8-10,79.8,72.3,64.9,70.0,64.6,55.0,96,78,60,30.14,29.94,5,0,8,0.01
2013-8-11,77.1,68.0,57.1,64.0,57.8,52.0,84,70,52,30.21,30.12,1,0,6,0.00
2013-8-12,78.8,70.6,65.6,67.0,63.4,58.0,95,79,53,30.13,30.02,2,0,7,0.00
2013-8-13,75.0,69.3,66.8,70.0,66.9,65.0,96,92,79,30.02,29.79,3,0,7,0.27
2013-8-14,72.3,64.8,55.4,65.0,56.0,51.0,95,75,55,30.12,29.83,5,0,11,0.01
2013-8-15,75.5,65.1,54.2,58.0,53.6,48.0,90,68,41,30.23,30.13,3,0,7,0.00
2013-8-16,76.9,67.9,57.8,60.0,56.2,52.0,89,68,46,30.30,30.21,2,0,5,0.00
2013-8-17,77.9,68.4,59.0,65.0,58.5,55.0,87,72,51,30.37,30.30,3,0,6,0.00
2013-8-18,73.3,67.3,62.6,66.0,60.5,56.0,87,79,67,30.36,30.22,3,0,6,0.00
2013-8-19,78.1,68.4,60.7,67.0,63.1,58.0,93,84,64,30.21,30.12,3,0,6,0.01
2013-8-20,84.8,73.7,64.5,68.0,63.7,61.0,93,73,47,30.22,30.13,4,0,6,0.00
2013-8-21,85.9,76.3,67.4,68.0,64.1,60.0,87,68,44,30.26,30.13,3,0,5,0.00
2013-8-22,76.5,70.7,68.1,72.0,68.6,65.0,96,93,85,30.15,29.96,0,0,5,0.62
2013-8-23,77.7,70.6,63.6,69.0,61.3,53.0,96,74,51,30.20,29.95,5,0,12,0.00
2013-8-24,76.3,66.4,56.7,60.0,54.7,50.0,82,67,46,30.44,30.20,3,0,11,0.00
2013-8-25,83.0,69.7,57.6,63.0,57.4,54.0,94,68,40,30.48,30.31,3,0,5,0.00
2013-8-26,78.0,70.4,64.4,68.0,63.2,57.0,93,78,65,30.32,30.00,3,0,6,0.31
2013-8-27,82.7,73.4,68.2,72.0,68.2,67.0,96,85,64,30.00,29.89,7,0,11,0.14
2013-8-28,84.8,74.2,68.8,72.0,68.6,66.0,93,83,62,29.99,29.93,3,0,6,0.01
2013-8-29,76.3,70.3,66.1,69.0,66.8,64.0,95,88,74,30.12,29.98,5,0,10,0.00
2013-8-30,83.6,72.6,65.5,71.0,67.2,63.0,95,83,62,30.12,29.94,1,0,5,0.00
2013-8-31,82.7,75.9,70.6,75.0,71.3,68.0,93,86,73,29.95,29.88,2,0,5,0.00
2013-9-1,81.2,75.3,71.6,75.0,71.8,70.0,95,89,77,29.94,29.89,2,0,5,0.00
2013-9-2,79.3,74.2,70.7,76.0,71.7,69.0,96,92,82,29.90,29.79,0,0,4,0.02
2013-9-3,79.2,70.9,64.4,70.0,65.4,58.0,96,84,61,29.97,29.79,5,0,8,0.18
2013-9-4,80.4,69.0,59.4,63.0,58.5,56.0,93,71,49,30.08,29.96,5,0,8,0.00
2013-9-5,74.9,65.8,57.4,64.0,55.3,45.0,91,71,49,30.24,30.00,7,0,10,0.00
2013-9-6,69.8,59.2,49.9,49.0,45.1,42.0,82,61,40,30.35,30.23,7,0,9,0.00
2013-9-7,78.1,64.7,50.6,58.0,51.5,46.0,87,65,39,30.22,29.99,4,0,5,0.00
2013-9-8,79.2,68.0,57.1,66.0,55.9,46.0,85,66,43,30.17,29.90,3,0,10,0.00
2013-9-9,71.3,60.7,49.9,56.0,48.9,44.0,85,66,42,30.34,30.17,4,0,9,0.00
2013-9-10,80.1,70.3,60.7,73.0,66.8,57.0,95,88,77,30.25,30.15,1,0,6,0.10
2013-9-11,93.3,80.0,71.2,78.0,73.1,69.0,95,81,57,30.20,30.06,2,0,7,0.00
2013-9-12,84.4,74.8,67.6,75.0,69.9,66.0,94,85,65,30.07,29.78,3,0,10,1.48
2013-9-13,75.0,66.1,56.4,68.0,62.1,52.0,96,87,63,29.92,29.70,4,0,15,0.07
2013-9-14,65.5,57.3,49.6,53.0,50.0,47.0,90,77,64,30.21,29.92,4,0,9,0.00
2013-9-15,68.9,58.4,48.7,55.0,48.8,45.0,88,72,49,30.30,30.18,1,0,5,0.00
2013-9-16,68.0,60.1,52.8,57.0,53.8,46.0,92,80,58,30.34,30.12,4,0,12,0.00
2013-9-17,63.1,52.8,43.7,46.0,42.1,38.0,83,68,45,30.53,30.34,8,1,14,0.00
2013-9-18,71.0,58.1,48.0,52.0,46.8,42.0,93,69,38,30.45,30.28,1,0,6,0.00
2013-9-19,75.8,61.4,50.6,56.0,51.4,48.0,93,72,41,30.29,30.17,2,0,4,0.00
2013-9-20,77.7,64.2,54.7,62.0,56.2,53.0,94,77,49,30.18,30.09,2,0,5,0.00
2013-9-21,72.6,64.6,56.4,66.0,61.3,55.0,95,89,78,30.11,29.76,4,0,18,0.13
2013-9-22,67.5,61.0,50.9,66.0,54.2,44.0,95,79,59,29.99,29.73,7,0,9,0.62
2013-9-23,63.5,53.7,46.0,47.0,44.1,40.0,84,71,49,30.14,29.99,5,0,9,0.00
2013-9-24,68.9,55.1,43.0,51.0,46.0,40.0,93,73,49,30.14,29.97,2,0,6,0.00
2013-9-25,70.4,58.5,48.4,52.0,48.0,43.0,85,69,48,30.05,29.98,3,0,9,0.00
2013-9-26,66.8,59.0,54.0,58.0,52.9,49.0,93,81,65,30.20,30.04,3,0,7,0.00
2013-9-27,63.5,56.9,50.1,54.0,51.6,48.0,93,83,69,30.37,30.20,3,0,9,0.00
2013-9-28,71.4,60.0,50.8,56.0,52.5,49.0,93,77,53,30.43,30.34,5,0,9,0.00
2013-9-29,68.4,59.1,53.8,59.0,53.6,48.0,94,82,67,30.34,30.18,2,0,9,0.00
2013-9-30,70.2,59.4,49.8,56.0,51.7,47.0,92,77,57,30.19,30.07,3,0,7,0.00
2013-10-1,76.8,64.1,53.7,60.0,56.1,51.0,93,77,52,30.10,30.00,1,0,6,0.00
2013-10-2,78.5,68.2,58.2,64.0,59.5,55.0,90,74,59,30.09,30.00,5,0,11,0.00
2013-10-3,74.2,65.9,59.6,60.0,55.9,51.0,84,71,51,30.21,30.09,2,0,4,0.00
2013-10-4,79.8,68.0,61.3,70.0,63.5,57.0,93,86,69,30.15,30.07,2,0,8,0.10
2013-10-5,71.8,64.7,60.7,65.0,61.8,59.0,95,90,78,30.19,30.11,3,0,5,0.01
2013-10-6,64.5,63.1,62.0,63.0,61.9,61.0,96,95,93,30.20,30.14,11,2,14,0.03
2013-10-7,70.7,65.1,56.0,69.0,63.9,54.0,97,96,92,30.14,29.86,5,0,14,0.47
2013-10-8,62.3,55.4,49.6,54.0,46.9,44.0,93,74,53,30.44,30.05,10,0,17,0.00
2013-10-9,59.0,53.1,47.3,49.0,44.9,40.0,87,74,57,30.52,30.41,8,2,15,0.00
2013-10-10,61.9,54.5,49.0,57.0,50.2,45.0,89,85,80,30.41,30.20,6,2,15,0.01
2013-10-11,65.5,60.8,55.6,60.0,56.2,52.0,89,85,80,30.20,30.13,10,2,13,0.00
2013-10-12,69.0,60.8,55.4,57.0,49.9,43.0,88,69,40,30.40,30.19,9,3,22,0.00
2013-10-13,61.8,54.6,49.1,52.0,49.5,47.0,93,83,68,30.49,30.39,8,1,17,0.00
2013-10-14,63.1,54.1,46.7,52.0,48.3,44.0,91,81,61,30.47,30.35,2,0,5,0.00
2013-10-15,67.5,56.9,49.8,55.0,49.4,45.0,94,78,52,30.36,30.22,4,0,8,0.00
2013-10-16,62.8,56.5,51.4,57.0,52.7,46.0,92,87,77,30.22,30.02,2,0,5,0.00
2013-10-17,70.8,62.8,58.3,62.0,59.1,56.0,95,88,69,30.01,29.78,1,0,6,0.03
2013-10-18,63.4,58.1,50.8,61.0,49.5,44.0,95,74,52,30.06,29.75,3,0,10,0.01
2013-10-19,61.2,54.0,46.7,53.0,46.6,42.0,91,77,59,30.08,29.84,4,0,4,0.06
2013-10-20,58.1,51.7,45.2,53.0,43.0,39.0,93,74,51,30.16,29.84,7,0,10,0.01
2013-10-21,61.6,52.1,44.0,45.0,41.1,38.0,83,68,43,30.24,30.09,2,0,7,0.00
2013-10-22,62.8,53.0,47.0,54.0,47.7,41.0,95,83,63,30.08,29.84,2,0,7,0.01
2013-10-23,51.6,45.7,40.1,41.0,37.6,36.0,86,74,58,29.91,29.72,4,0,7,0.00
2013-10-24,51.9,43.2,37.4,37.0,32.2,29.0,87,67,43,30.09,29.83,4,0,9,0.00
2013-10-25,49.8,42.6,36.5,36.0,32.3,30.0,82,68,51,30.32,30.09,6,0,19,0.00
2013-10-26,50.8,43.3,34.2,38.0,32.8,30.0,92,69,46,30.31,30.00,3,0,12,0.00
2013-10-27,54.7,46.7,39.8,39.0,34.8,31.0,85,65,45,30.21,29.94,7,0,9,0.01
2013-10-28,57.0,47.2,37.1,37.0,34.5,32.0,85,63,45,30.43,30.21,4,0,11,0.00
2013-10-29,51.3,44.1,38.0,34.0,30.8,28.0,70,60,50,30.52,30.43,2,0,7,0.00
2013-10-30,56.0,48.2,41.5,49.0,40.7,29.0,91,76,61,30.45,30.29,0,0,4,0.00
2013-10-31,60.6,54.6,47.4,58.0,52.7,46.0,95,93,91,30.33,29.91,2,0,6,0.05
2013-11-1,64.5,60.4,54.9,62.0,56.9,53.0,95,88,69,29.90,29.63,8,0,10,0.17
2013-11-2,63.2,55.3,49.2,53.0,46.9,41.0,93,74,53,29.87,29.71,3,0,7,0.00
2013-11-3,49.5,42.5,32.9,42.0,33.1,19.0,84,70,57,30.54,29.87,12,2,15,0.00
2013-11-4,41.7,35.2,28.5,25.0,19.4,16.0,69,54,35,30.77,30.54,7,1,12,0.00
2013-11-5,50.6,42.9,34.6,41.0,33.7,20.0,85,70,53,30.78,30.59,5,0,8,0.00
2013-11-6,58.6,50.9,43.9,50.0,45.2,41.0,93,81,63,30.60,30.17,3,0,6,0.00
2013-11-7,59.8,51.7,39.3,57.0,48.2,31.0,94,88,65,30.17,29.84,4,1,13,0.16
2013-11-8,47.3,40.7,36.9,33.0,29.5,26.0,80,66,49,30.29,30.00,6,1,14,0.00
2013-11-9,46.3,41.1,35.3,35.0,29.2,27.0,75,63,49,30.38,30.11,4,0,14,0.00
2013-11-10,58.3,46.3,39.6,39.0,34.8,28.0,81,66,41,30.12,29.89,15,2,21,0.01
2013-11-11,48.6,45.4,38.9,34.0,30.0,27.0,64,55,48,30.28,30.05,9,1,10,0.00
2013-11-12,47.8,35.1,26.9,37.0,27.9,19.0,92,76,57,30.36,30.02,6,1,15,0.11
2013-11-13,34.7,29.2,23.6,20.0,17.7,14.0,78,63,44,30.46,30.36,11,1,13,0.00
2013-11-14,48.5,38.1,27.9,23.0,20.3,17.0,76,52,32,30.36,30.25,4,0,8,0.01
2013-11-15,55.4,44.3,36.4,32.0,24.7,18.0,62,48,27,30.35,30.26,3,0,6,0.00
2013-11-16,57.6,48.4,41.4,44.0,38.5,27.0,93,70,50,30.43,30.32,3,0,6,0.01
2013-11-17,58.4,52.7,44.9,57.0,51.5,43.0,96,95,93,30.38,29.90,6,1,10,0.01
2013-11-18,61.6,55.4,46.5,58.0,43.5,28.0,97,68,39,29.88,29.68,6,1,19,0.14
2013-11-19,46.5,39.8,31.0,29.0,25.6,22.0,68,57,50,30.43,29.85,10,3,18,0.00
2013-11-20,40.4,33.0,27.4,21.0,17.5,12.0,69,54,32,30.72,30.43,12,2,17,0.00
2013-11-21,45.7,38.1,27.9,39.0,27.0,15.0,82,65,49,30.73,30.50,5,0,8,0.00
2013-11-22,51.1,47.7,44.3,50.0,45.1,39.0,94,90,81,30.50,29.99,3,0,8,0.17
2013-11-23,49.9,39.0,26.9,48.0,26.8,15.0,93,63,43,30.12,29.98,14,3,20,0.00
2013-11-24,27.7,23.6,20.6,16.0,6.6,-1.0,67,49,30,30.44,30.07,12,4,26,0.00
2013-11-25,32.4,26.3,19.1,16.0,13.0,8.0,73,58,44,30.57,30.43,10,1,12,0.00
2013-11-26,44.1,34.5,30.4,43.0,24.7,16.0,95,69,46,30.44,29.94,11,2,17,0.41
2013-11-27,59.4,45.3,31.8,58.0,44.0,24.0,96,95,74,29.92,29.43,14,3,21,3.25
2013-11-28,31.9,28.5,25.3,24.0,16.2,12.0,74,61,48,30.58,29.78,11,3,22,0.00
2013-11-29,35.7,29.6,25.1,22.0,19.2,14.0,76,66,58,30.84,30.58,4,0,8,0.00
2013-11-30,33.4,27.1,19.5,28.0,17.9,11.0,81,69,53,30.88,30.50,6,1,9,0.00
2013-12-1,48.0,39.4,32.5,37.0,31.8,27.0,86,75,62,30.49,30.12,2,0,5,0.00
2013-12-2,44.0,38.9,35.3,37.0,33.1,30.0,90,80,71,30.11,30.00,1,0,3,0.00
2013-12-3,49.1,39.9,33.2,38.0,34.4,31.0,93,81,61,30.11,29.98,3,1,7,0.00
2013-12-4,49.6,41.3,34.5,41.0,34.5,29.0,89,77,63,30.26,30.11,4,0,8,0.00
2013-12-5,53.4,50.0,44.2,52.0,48.7,41.0,96,95,89,30.25,30.05,5,1,8,0.02
2013-12-6,54.0,43.9,33.8,53.0,42.9,33.0,96,96,95,30.24,29.97,6,1,13,0.70
2013-12-7,37.1,33.2,28.1,35.0,28.2,19.0,95,83,67,30.61,30.19,8,1,12,0.06
2013-12-8,29.6,27.5,24.1,25.0,20.1,17.0,87,74,68,30.70,30.51,7,1,12,0.00
2013-12-9,36.5,32.4,27.7,35.0,31.0,25.0,95,94,88,30.51,30.07,9,2,16,0.03
2013-12-10,32.9,29.9,22.6,31.0,28.2,20.0,95,93,88,30.20,29.96,3,0,9,0.02
2013-12-11,33.4,25.1,20.4,24.0,19.4,17.0,88,79,66,30.41,30.20,4,0,12,0.00
2013-12-12,24.7,20.9,17.4,18.0,11.8,9.0,79,68,57,30.44,30.25,11,1,11,0.00
2013-12-13,32.1,24.9,17.1,19.0,14.9,9.0,78,66,58,30.45,30.21,5,1,11,0.00
2013-12-14,28.0,20.6,16.2,26.0,17.0,13.0,93,86,73,30.62,29.97,12,4,26,0.09
2013-12-15,33.3,30.4,25.7,32.0,28.7,24.0,94,93,91,29.95,29.63,23,1,23,0.24
2013-12-16,27.2,22.8,18.3,24.0,16.8,12.0,92,78,66,30.34,29.91,0,0,0,0.00
2013-12-17,25.4,20.7,17.2,23.0,17.5,11.0,92,87,76,30.34,30.06,0,0,0,0.11
2013-12-18,33.1,24.8,18.7,26.0,20.2,16.0,90,83,72,30.27,30.04,7,0,11,0.00
2013-12-19,41.9,32.7,22.4,30.0,25.5,19.0,87,75,58,30.28,30.14,4,0,10,0.00
2013-12-20,47.6,42.0,37.7,37.0,32.4,29.0,79,69,58,30.22,30.07,3,0,7,0.00
2013-12-21,55.5,49.5,43.0,49.0,44.6,37.0,92,83,71,30.11,30.00,3,0,6,0.00
2013-12-22,64.6,58.5,49.9,62.0,55.7,48.0,96,90,81,30.06,29.90,7,1,14,0.00
2013-12-23,57.7,51.3,38.1,56.0,49.6,36.0,95,94,90,30.22,29.99,7,1,13,0.51
2013-12-24,37.8,32.0,22.9,36.0,26.1,13.0,92,79,61,30.42,30.18,9,2,16,0.01
2013-12-25,26.0,21.3,15.4,15.0,10.8,8.0,74,64,51,30.63,30.42,9,1,16,0.00
2013-12-26,31.4,28.2,23.4,26.0,22.8,15.0,84,80,69,30.56,30.27,2,0,7,0.00
2013-12-27,36.6,30.7,25.9,25.0,22.6,20.0,84,73,57,30.46,30.36,6,0,7,0.00
2013-12-28,47.7,38.2,29.1,29.0,26.5,24.0,81,64,46,30.39,30.17,7,1,10,0.00
2013-12-29,42.7,40.2,37.9,41.0,33.9,28.0,95,79,60,30.17,29.54,11,2,17,0.50
2013-12-30,37.7,32.1,18.7,36.0,26.3,11.0,95,80,59,30.29,29.77,6,1,14,0.00
2013-12-31,28.6,22.6,16.9,22.0,13.9,9.0,85,70,55,30.38,30.17,6,1,18,0.00
2014-1-1,30.3,24.8,17.6,19.0,14.5,9.0,77,65,57,30.52,30.36,5,0,8,0.00
2014-1-2,27.1,21.8,13.5,21.0,18.0,11.0,89,85,70,30.38,29.80,13,3,19,0.02